Content
SEND FEEDBACK

Daily
Averages
Monthly
Summary
Canada

COMFORT COVE, NEWFOUNDLAND


Home > North America > Canada > Newfoundland
Elevation: 326 feet     Latitude: 49 16N     Longitude: 54 53W

WEATHER
 
SELECT A DAY
Number of Records: 226,072;   Date Range: 1/1/95 - 11/20/14
 
SHARE

PRINT THIS DATA

[ ← Previous Day ]
WEATHER ALMANAC - FEBRUARY 13, 2013
[ Next Day → ]
[ °C ]   °F
Weather ElementAverageHighLow
Temperature30.9 °F32 °F (2:52 am)28.4 °F (12:20 am)
Dewpoint29 °F32 °F (4:55 am)26 °F (8:30 pm)
Humidity92.6 %100 % (12:20 am)86 % (6:12 pm)
Barometer29.13 in29.31 in (11:03 pm)29.05 in (12:30 pm)
Wind Speed15.1 mph29.9 mph (12:41 am)
Wind Gust39.1 mph (12:41 am)
Weather ElementAverage
Visibility5.1 mi
Wind DirectionSSW (201.6 °)

Weather ElementTotal
Precipitation---
Heating Degree Days34.8 (Base 65)
Averaged from 64 records on February 13, 2013
WEATHER CONDITIONS BREAKOUT
WIND DIRECTION BREAKOUT
WEATHER BY HOUR - FEBRUARY 13, 2013
[ °C ]   °F
Local TimeTemperatureDewpointHumidityBarometerVisibilityWind DirectionWind SpeedGust SpeedPrecipitationEventsConditions
12:20 AM28.4 °F28.4 °F100 %29.19 in1.5 miESE (110°)24.2 mph34.5 mphSnowLight Freezing Drizzle
12:30 AM30.2 °F28.4 °F93 %29.18 in1.5 miESE (120°)28.8 mph36.8 mphSnowLight Freezing Drizzle
12:41 AM30.2 °F28.4 °F93 %29.17 in2.0 miESE (120°)29.9 mph39.1 mphSnowLight Freezing Drizzle
1:13 AM30.2 °F28.4 °F93 %29.16 in1.5 miESE (120°)27.6 mph38.0 mphSnowLight Freezing Drizzle
1:30 AM30.2 °F28.4 °F93 %29.16 in1.5 miESE (120°)28.8 mph35.7 mphSnowLight Snow
1:39 AM30.2 °F28.4 °F93 %29.15 in2.5 miESE (120°)24.2 mph35.7 mphSnowLight Freezing Drizzle
1:44 AM30.2 °F28.4 °F93 %29.15 in3.0 miESE (120°)25.3 mph33.4 mphSnowLight Freezing Drizzle
2:20 AM30.2 °F30.2 °F100 %29.13 in3.0 miESE (110°)17.3 mph25.3 mphSnowLight Freezing Drizzle
2:30 AM30.2 °F30.2 °F100 %29.12 in3.0 miESE (110°)19.6 mph25.3 mphSnowLight Freezing Drizzle
2:30 AM31.0 °F30.0 °F93 %29.12 in3.0 miESE (110°)19.6 mphRainLight Freezing Drizzle
2:52 AM32.0 °F30.2 °F93 %29.11 in3.0 miESE (120°)17.3 mphLight Freezing Drizzle
3:14 AM32.0 °F30.2 °F93 %29.10 in2.0 miESE (120°)17.3 mphLight Freezing Drizzle
3:21 AM32.0 °F30.2 °F93 %29.10 in1.0 miESE (120°)16.1 mph21.9 mphLight Freezing Drizzle
3:30 AM32.0 °F30.2 °F93 %29.09 in1.0 miESE (120°)12.7 mph19.6 mphLight Freezing Drizzle
3:37 AM32.0 °F30.2 °F93 %29.09 in0.5 miESE (110°)13.8 mphFogLight Freezing Drizzle
3:58 AM32.0 °F30.2 °F93 %29.08 in0.2 miESE (120°)13.8 mphFogLight Freezing Drizzle
4:30 AM32.0 °F30.2 °F93 %29.08 in0.2 miESE (120°)12.7 mphFogLight Freezing Drizzle
4:55 AM32.0 °F32.0 °F100 %29.08 in0.5 miESE (120°)8.1 mphFog-SnowLight Drizzle
5:00 AM32.0 °F32.0 °F100 %29.08 in1.0 miESE (120°)10.4 mphSnowLight Drizzle
5:12 AM32.0 °F32.0 °F100 %29.08 in1.0 miESE (120°)10.4 mphLight Drizzle
5:20 AM32.0 °F32.0 °F100 %29.08 in1.5 miSE (140°)9.2 mphLight Drizzle
5:30 AM32.0 °F32.0 °F100 %29.07 in3.0 miSE (140°)9.2 mphLight Drizzle
5:55 AM32.0 °F32.0 °F100 %29.07 in6.0 miSouth (170°)17.3 mphOvercast
6:09 AM32.0 °F32.0 °F100 %29.07 in6.0 miSouth (170°)15.0 mphOvercast
6:30 AM32.0 °F32.0 °F100 %29.07 in8.0 miSouth (180°)16.1 mph23.0 mphOvercast
7:21 AM32.0 °F30.2 °F93 %29.07 in15.0 miSouth (190°)13.8 mph20.7 mphOvercast
7:30 AM32.0 °F28.4 °F87 %29.07 in15.0 miSouth (190°)16.1 mphMostly Cloudy
8:30 AM31.0 °F29.0 °F88 %29.08 in19.0 miSouth (180°)10.4 mphPartly Cloudy
8:30 AM32.0 °F28.4 °F87 %29.08 in20.0 miSouth (190°)11.5 mphMostly Cloudy
8:46 AM32.0 °F28.4 °F87 %29.08 in15.0 miSSW (200°)8.1 mphSnowLight Snow Showers
9:12 AM32.0 °F28.4 °F87 %29.08 in20.0 miSouth (190°)9.2 mphOvercast
9:30 AM32.0 °F28.4 °F87 %29.07 in20.0 miSouth (190°)10.4 mphOvercast
9:54 AM32.0 °F28.4 °F87 %29.08 in20.0 miSouth (190°)10.4 mphSnowLight Snow Showers
10:30 AM32.0 °F28.4 °F87 %29.08 in4.0 miSSW (200°)8.1 mphSnowLight Snow Showers
10:56 AM32.0 °F28.4 °F87 %29.08 in3.0 miSW (220°)6.9 mphSnowLight Snow Showers
11:30 AM32.0 °F28.4 °F87 %29.07 in4.0 miSW (220°)4.6 mphSnowLight Snow Showers
11:51 AM32.0 °F28.4 °F87 %29.06 in8.0 miSSW (200°)5.8 mphSnowLight Snow Showers
12:30 PM32.0 °F28.4 °F87 %29.05 in15.0 miSSW (210°)3.5 mphSnowLight Snow Showers
12:51 PM32.0 °F28.4 °F87 %29.06 in15.0 miSW (220°)4.6 mphOvercast
1:19 PM32.0 °F30.2 °F93 %29.07 in15.0 miSW (230°)3.5 mphSnowLight Snow Showers
1:30 PM32.0 °F30.2 °F93 %29.07 in12.0 miSSW (210°)4.6 mphSnowLight Snow Showers
2:00 PM32.0 °F30.2 °F93 %29.07 in2.0 miWSW (250°)4.6 mphSnowLight Snow Showers
2:10 PM32.0 °F30.2 °F93 %29.07 in1.2 miWest (260°)6.9 mphSnowLight Snow Showers
2:30 PM32.0 °F31.0 °F95 %29.08 in1.0 miWest (270°)6.9 mphSnowLight Snow Showers
2:30 PM32.0 °F30.2 °F93 %29.08 in1.0 miWest (270°)9.2 mphSnowLight Snow Showers
2:50 PM32.0 °F30.2 °F93 %29.09 in1.2 miWNW (290°)13.8 mphSnowLight Snow Showers
3:05 PM32.0 °F28.4 °F87 %29.09 in1.5 miWNW (290°)17.3 mphSnowLight Snow Showers
3:30 PM30.2 °F28.4 °F93 %29.11 in2.0 miWNW (290°)18.4 mphSnowLight Snow Showers
3:52 PM30.2 °F28.4 °F93 %29.12 in1.2 miWNW (290°)12.7 mph23.0 mphSnowLight Snow Showers
4:30 PM30.2 °F28.4 °F93 %29.13 in1.5 miWNW (290°)19.6 mph26.5 mphSnowLight Snow Showers
5:30 PM30.2 °F28.4 °F93 %29.16 in2.0 miWNW (290°)18.4 mph26.5 mphSnowLight Snow
6:12 PM30.2 °F26.6 °F86 %29.17 in3.0 miWNW (300°)21.9 mph28.8 mphSnowLight Snow
6:30 PM30.2 °F26.6 °F86 %29.18 in3.0 miWNW (290°)18.4 mph26.5 mphSnowLight Snow
7:30 PM28.4 °F26.6 °F93 %29.21 in3.0 miWNW (290°)23.0 mph29.9 mphSnowLight Snow
8:30 PM29.0 °F26.0 °F86 %29.24 in3.0 miWest (280°)18.4 mphSnowLight Snow
8:30 PM28.4 °F26.6 °F93 %29.24 in3.0 miWest (280°)19.6 mph26.5 mphSnowLight Snow
8:40 PM28.4 °F26.6 °F93 %29.25 in3.0 miWest (280°)20.7 mphSnowLight Snow
8:46 PM28.4 °F26.6 °F93 %29.25 in2.5 miWest (280°)17.3 mph25.3 mphSnowLight Snow
9:30 PM28.4 °F26.6 °F93 %29.27 in2.0 miWest (280°)16.1 mph23.0 mphSnowLight Snow
10:20 PM28.4 °F26.6 °F93 %29.29 in3.0 miWNW (290°)20.7 mph27.6 mphSnowLight Snow
10:30 PM28.4 °F26.6 °F93 %29.29 in3.0 miWNW (290°)20.7 mph27.6 mphSnowLight Snow
11:03 PM28.4 °F26.6 °F93 %29.31 in3.0 miWNW (290°)20.7 mph28.8 mphSnowLight Snow
11:18 PM28.4 °F26.6 °F93 %29.31 in2.5 miWNW (290°)21.9 mph27.6 mphSnowLight Snow
11:30 PM28.4 °F26.6 °F93 %29.31 in1.5 miWNW (290°)20.7 mph27.6 mphSnowLight Snow
Hourly data recorded from CYQX, located miles away from Comfort Cove, Newfoundland







STORIES FROM OUR PARTNERS